Flag for U.S.A. Weather past 2 weeks in Baltimore, Maryland, U.S.A.

Now
72 °F

Mostly cloudy.


Feels Like: 73 °F
Forecast: 67 / 80 °F
Wind: 5 mph from Northeast

Location: Baltimore-Washington International Airport

Current Time: Jul 2, 2015 at 12:47:12 PM

Latest Report: Jul 2, 2015 at 11:54 AM


Visibility: 6 mi

Pressure: 29.89 "Hg

Humidity: 78%

Dew point: 65 °F

Location of BaltimoreLocation

Historic Weather in Baltimore — Graph

°F

Baltimore temperature yesterday

Maximum temperature yesterday: 85 °F (at 3:54 PM)
Minimum temperature yesterday: 66 °F (at 3:54 AM)
Average temperature yesterday: 75 °F

Past Weeks' High & Low Weather Summary

 TemperatureHumidityPressure
High94 °F (Jun 23, 2:54 PM)100% (Jun 28, 1:54 AM)30.11 "Hg (Jun 28, 1:54 AM)
Low59 °F (Jun 29, 4:54 AM)37% (Jun 29, 5:54 PM)29.65 "Hg (Jun 28, 1:54 AM)
Average75 °F73%29.92 "Hg
* Reported Jun 17 10:54 AM — Jul 2 10:54 AM, Baltimore, Weather by CustomWeather, © 2015

Note: Actual official high and low records may vary slightly from our data, if they occured in-between our weather recording intervals... More about our weather records

Advertising

Baltimore weather history for previous 24 hours

 ConditionsComfort  
Time TempWeatherWind HumidityBarometerVisibility
10:54 AM
Thu, Jul 2
70 °FMostly cloudy.8 mph81%29.90 "Hg6 mi
9:54 AM69 °FLight rain. Cloudy.6 mph81%29.91 "Hg5 mi
8:54 AM68 °FRain. Fog.5 mph87%29.91 "Hg2 mi
7:54 AM69 °FLight rain. Mostly cloudy.No wind81%29.90 "Hg4 mi
6:54 AM68 °FMostly cloudy.No wind84%29.89 "Hg6 mi
5:54 AM67 °FFog.No wind90%29.88 "Hg6 mi
4:54 AM66 °FPartly cloudy.No wind93%29.87 "Hg8 mi
3:54 AM66 °FPassing clouds.No wind93%29.87 "Hg9 mi
2:54 AM66 °FPassing clouds.No wind93%29.88 "Hg9 mi
1:54 AM69 °FPassing clouds.6 mph87%29.89 "Hg9 mi
12:54 AM67 °FPassing clouds.No wind90%29.90 "Hg9 mi
11:54 PM
Wed, Jul 1
70 °FPassing clouds.No wind84%29.90 "Hg10 mi
10:54 PM71 °FPassing clouds.No wind78%29.89 "Hg9 mi
9:54 PM73 °FPassing clouds.No wind71%29.88 "Hg9 mi
8:54 PM78 °FBroken clouds.3 mph60%29.86 "Hg8 mi
7:54 PM80 °FBroken clouds.3 mph67%29.83 "Hg9 mi
6:54 PM82 °FBroken clouds.5 mph55%29.82 "Hg10 mi
5:54 PM82 °FBroken clouds.8 mph56%29.81 "Hg9 mi
4:54 PM83 °FPartly sunny.10 mph51%29.82 "Hg10 mi
3:54 PM85 °FBroken clouds.10 mph48%29.82 "Hg10 mi
2:54 PM84 °FScattered clouds.12 mph49%29.83 "Hg10 mi
1:54 PM83 °FScattered clouds.10 mph53%29.84 "Hg10 mi
12:54 PM83 °FPassing clouds.10 mph59%29.85 "Hg10 mi
Weather by CustomWeather, © 2015

See weather overviewHow to use our weather pages